Orbital Elements at Epoch 2459200.5 (2020-Dec-17.0) TDB
Reference: JPL 23 (heliocentric ecliptic J2000)
Element | Value | Uncertainty (1-sigma) | Units |
e | .2188888157044804 | 5.5948e-08 | |
a | 2.735452065901298 | 1.9334e-08 | au |
q | 2.136692202779789 | 1.4929e-07 | au |
i | 3.838857918415307 | 5.8727e-06 | deg |
node | 357.914889156601 | 6.4141e-05 | deg |
peri | 328.5993086907224 | 6.5278e-05 | deg |
M | 229.3601871091617 | 1.7105e-05 | deg |
tp | 2459800.173888980694 (2022-Aug-08.67388898) | 8.2995e-05 | TDB |
period | 1652.502367049774 4.52 | 1.7519e-05 4.796e-08 | d yr |
n | .2178514277366579 | 2.3096e-09 | deg/d |
Q | 3.334211929022807 | 2.3566e-08 | au |
|
| | Orbit Determination Parameters
Additional Information
|